Location: Boleita
(10.4833°N, 66.8167°W)
Time: 01:13:29
(UTC+00:00)

Cosmos 1605 Rocket - Pass Details

Date: 08 November 2025
Orbit: 943 x 1005 km, 82.9° (Epoch: 08 December)

Event Time Altitude Azimuth Distance (km) Brightness Sun altitude
Exits shadow 08:10:17 39° 26° (NNE) 1,388 4.8 -31.7°
Maximum altitude 08:12:25 60° 86° (E) 1,082 4.3 -31.2°
Drops below altitude 10° 08:18:28 10° 165° (SSE) 2,697 6.6 -29.8°
Sets 08:21:01 0° 169° (S) 3,653 7.3 -29.2°
